Powrót do katalogu

STARLINK-34636

AktywnyŁącznośćVLEO
NORAD 64915·PAYLOAD·🇺🇸 United States

Wystrzelony Jul 26, 2025 z Cape Canaveral Space Force Station

Loading…

Następne Przeloty (najbliższe 24 godziny)

TLE

ŚwieżeSource: CelesTrak SupGP

Epoka: Sep 15, 2026, 02:59 UTC

1 64915C 25157M   26258.12479167 -.00102050  00000+0 -30149-2 0  2581
2 64915  53.1576 182.6112 0001379  84.9241 200.5943 15.34442760    13

Śledź STARLINK-34636 w czasie rzeczywistym z AllMySat

Download on the App Store